Home   Weather   Aklavik   Past weeks

Flag for Canada Past Weather in Aklavik, Northwest Territories, Canada — Yesterday and Last 2 Weeks

Now
-22 °F

Snow flurries. Overcast.


Feels Like: -22 °F
Forecast: -22 / -12 °F
Wind: 2 mph from North

Location: Inuvik

Current Time: Jan 17, 2017 at 12:12:31 am

Latest Report: Jan 16, 2017 at 11:00 pm


Visibility: 3 mi

Pressure: 29.39 "Hg

Humidity: 75%

Dew Point: -27 °F

Location of AklavikLocation

Past Weather in Aklavik — Graph

°F

Aklavik Temperature Yesterday

Maximum temperature yesterday: -22 °F (at 3:00 pm)
Minimum temperature yesterday: -27 °F (at 2:00 am)
Average temperature yesterday: -24 °F

High & Low Weather Summary for the Past Weeks

 TemperatureHumidityPressure
High34 °F (Jan 3, 3:00 pm)100% (Jan 3, 8:00 pm)30.98 "Hg (Jan 3, 8:00 pm)
Low-27 °F (Jan 16, 2:00 am)55% (Jan 2, 10:00 pm)29.39 "Hg (Jan 16, 11:00 pm)
Average6 °F82%30.10 "Hg
* Reported Jan 1 11:00 pm — Jan 16 11:00 pm, Aklavik, Weather by CustomWeather, © 2017

Note: Actual official high and low records may vary slightly from our data, if they occured in-between our weather recording intervals... More about our weather records

Advertising

Aklavik Weather History for the Previous 24 Hours

Scroll right to see more
 ConditionsComfort  
Time TempWeatherWind HumidityBarometerVisibility
11:00 pm
Mon, Jan 16
-22 °FSnow flurries. Overcast.2 mph75%29.39 "Hg3 mi
10:00 pm-22 °FSnow flurries. Passing clouds.No wind75%29.40 "Hg15 mi
9:00 pm-24 °FSnow flurries. Passing clouds.3 mph75%29.41 "Hg15 mi
8:00 pm-24 °FSnow flurries. Passing clouds.2 mph75%29.43 "Hg15 mi
7:00 pm-22 °FSnow flurries. Passing clouds.No wind75%29.43 "Hg15 mi
6:00 pm-22 °FSnow flurries. Overcast.No wind75%29.45 "Hg15 mi
5:00 pm-22 °FSnow flurries. Overcast.No wind75%29.46 "Hg15 mi
4:00 pm-22 °FLight snow. Overcast.No wind75%29.47 "Hg15 mi
3:57 pm-22 °FLight snow. Overcast.No wind75%29.47 "Hg15 mi
3:00 pm-22 °FSnow flurries. Mostly cloudy.No wind75%29.47 "Hg15 mi
2:00 pm-24 °FSnow flurries. Partly cloudy.2 mph75%29.48 "Hg15 mi
1:00 pm-26 °FSnow flurries. Partly cloudy.No wind75%29.48 "Hg15 mi
12:00 pm-26 °FSnow flurries. Passing clouds.No wind75%29.49 "Hg15 mi
11:00 am-24 °FSnow flurries. Passing clouds.2 mph75%29.49 "Hg15 mi
10:00 am-26 °FSnow flurries. Passing clouds.2 mph75%29.48 "Hg15 mi
9:00 am-24 °FSnow flurries. Clear.3 mph75%29.50 "Hg15 mi
8:00 am-24 °FPassing clouds.2 mph68%29.50 "Hg15 mi
7:00 am-24 °FPassing clouds.3 mph75%29.51 "Hg15 mi
6:00 am-26 °FPassing clouds.2 mph75%29.52 "Hg15 mi
5:00 am-26 °FPassing clouds.No wind75%29.54 "Hg15 mi
4:00 am-26 °FPassing clouds.No wind75%29.55 "Hg15 mi
3:00 am-24 °FPassing clouds.No wind75%29.56 "Hg15 mi
2:00 am-27 °FPartly cloudy.No wind74%29.56 "Hg15 mi
1:00 am-26 °FPassing clouds.3 mph67%29.55 "Hg15 mi
12:00 am-26 °FPassing clouds.No wind75%29.54 "Hg15 mi
Weather by CustomWeather, © 2017

See weather overviewHow to use our weather pages